Location: Unspecified
(0.0000°N, 0.0000°E)
Time: 10:39:50
(UTC+00:00)

Envisat - Pass Details

Date: 01 February 2021
Orbit: 764 x 766 km, 98.1° (Epoch: 25 February)

Event Time Altitude Azimuth Distance (km) Brightness Sun altitude
Rises 05:25:55 0° 8° (N) 3,212 6.1 -11.4°
Reaches altitude 10° 05:28:13 10° 7° (N) 2,289 5.4 -10.8°
Maximum altitude 05:33:15 75° 282° (WNW) 792 2.9 -9.6°
Drops below altitude 10° 05:38:19 10° 197° (SSW) 2,299 5.5 -8.4°
Sets 05:40:37 0° 195° (SSW) 3,227 6.3 -7.9°
